Location: Unspecified
(47.9110°N, 14.3980°E)
Time: 15:29:40
(UTC+00:00)

USA 267 - Pass Details

Date: 06 August 2020
Orbit: 1102 x 1106 km, 123.0° (Epoch: 18 September)

Event Time Altitude Azimuth Distance (km) Brightness Sun altitude
Rises 19:20:42 0° 54° (NE) 3,928 6.0 -8.1°
Reaches altitude 10° 19:23:12 10° 56° (ENE) 2,968 5.3 -8.5°
Maximum altitude 19:29:45 71° 141° (SE) 1,161 3.2 -9.4°
Drops below altitude 10° 19:36:17 10° 225° (SW) 2,958 5.6 -10.2°
Sets 19:38:46 0° 228° (SW) 3,914 6.3 -10.6°
